Time,TemperatureF,DewpointF,PressureIn,WindDirection,WindDirectionDegrees,WindSpeedMPH,WindSpeedGustMPH,Humidity,HourlyPrecipIn,Conditions,Clouds,dailyrainin,SoftwareType,DateUTC
2013-01-05 00:05:00,41.7,38.1,30.23,SE,131,0.0,0.0,87,0.00,,,0.00,Wunderground v.1.15,2013-01-05 08:05:00,
2013-01-05 00:10:00,41.8,37.9,30.23,SE,131,0.0,0.0,86,0.00,,,0.00,Wunderground v.1.15,2013-01-05 08:10:00,
2013-01-05 00:20:00,41.6,37.7,30.22,SE,131,0.0,0.0,86,0.00,,,0.00,Wunderground v.1.15,2013-01-05 08:20:00,
2013-01-05 00:35:00,41.3,37.1,30.22,SE,131,0.0,0.0,85,0.00,,,0.00,Wunderground v.1.15,2013-01-05 08:35:00,
2013-01-05 00:45:00,40.6,37.0,30.22,SE,131,0.0,0.0,87,0.00,,,0.00,Wunderground v.1.15,2013-01-05 08:45:00,
2013-01-05 00:50:00,40.2,36.6,30.22,SE,131,0.0,0.0,87,0.00,,,0.00,Wunderground v.1.15,2013-01-05 08:50:00,
2013-01-05 00:55:00,39.9,36.6,30.22,SE,131,0.0,0.0,88,0.00,,,0.00,Wunderground v.1.15,2013-01-05 08:55:00,
2013-01-05 01:04:00,39.5,36.2,30.22,SE,131,0.0,0.0,88,0.00,,,0.00,Wunderground v.1.15,2013-01-05 09:04:00,
2013-01-05 01:10:00,39.5,36.2,30.22,SE,131,0.0,0.0,88,0.00,,,0.00,Wunderground v.1.15,2013-01-05 09:10:00,
2013-01-05 01:15:00,39.6,36.3,30.22,SE,131,0.0,0.0,88,0.00,,,0.00,Wunderground v.1.15,2013-01-05 09:15:00,
2013-01-05 01:25:00,39.8,37.1,30.22,SE,131,0.0,0.0,90,0.00,,,0.00,Wunderground v.1.15,2013-01-05 09:25:00,
2013-01-05 01:35:00,39.6,36.6,30.22,SE,131,0.0,0.0,89,0.00,,,0.00,Wunderground v.1.15,2013-01-05 09:35:00,
2013-01-05 01:45:00,39.7,37.0,30.22,SE,131,0.0,0.0,90,0.00,,,0.00,Wunderground v.1.15,2013-01-05 09:45:00,
2013-01-05 01:55:00,39.8,37.4,30.22,SE,131,0.0,0.0,91,0.00,,,0.00,Wunderground v.1.15,2013-01-05 09:55:00,
2013-01-05 02:05:00,39.3,36.6,30.22,SE,131,0.0,0.0,90,0.00,,,0.00,Wunderground v.1.15,2013-01-05 10:05:00,
2013-01-05 02:15:00,39.1,36.7,30.23,SE,131,0.0,0.0,91,0.00,,,0.00,Wunderground v.1.15,2013-01-05 10:15:00,
2013-01-05 02:20:00,39.0,36.6,30.23,SE,131,0.0,0.0,91,0.00,,,0.00,Wunderground v.1.15,2013-01-05 10:20:00,
2013-01-05 02:39:00,38.6,36.2,30.23,SE,131,0.0,0.0,91,0.00,,,0.00,Wunderground v.1.15,2013-01-05 10:39:00,
2013-01-05 02:44:00,38.7,36.6,30.22,SE,131,0.0,0.0,92,0.00,,,0.00,Wunderground v.1.15,2013-01-05 10:44:00,
2013-01-05 02:55:00,38.2,35.8,30.22,SE,131,0.0,0.0,91,0.00,,,0.00,Wunderground v.1.15,2013-01-05 10:55:00,
2013-01-05 03:05:00,38.6,36.5,30.22,SE,131,0.0,0.0,92,0.00,,,0.00,Wunderground v.1.15,2013-01-05 11:05:00,
2013-01-05 03:15:00,37.9,35.5,30.23,SE,131,0.0,0.0,91,0.00,,,0.00,Wunderground v.1.15,2013-01-05 11:15:00,
2013-01-05 03:20:00,37.8,35.7,30.23,SE,131,0.0,0.0,92,0.00,,,0.00,Wunderground v.1.15,2013-01-05 11:20:00,
2013-01-05 03:29:00,37.5,35.4,30.23,SE,131,0.0,0.0,92,0.00,,,0.00,Wunderground v.1.15,2013-01-05 11:29:00,
2013-01-05 03:35:00,37.7,35.9,30.23,SE,131,0.0,0.0,93,0.00,,,0.00,Wunderground v.1.15,2013-01-05 11:35:00,
2013-01-05 03:54:00,38.2,36.4,30.24,SE,131,0.0,0.0,93,0.00,,,0.00,Wunderground v.1.15,2013-01-05 11:54:00,
2013-01-05 04:00:00,38.3,36.5,30.23,SE,131,0.0,0.0,93,0.00,,,0.00,Wunderground v.1.15,2013-01-05 12:00:00,
2013-01-05 04:05:00,38.3,36.5,30.23,SE,131,0.0,0.0,93,0.00,,,0.00,Wunderground v.1.15,2013-01-05 12:05:00,
2013-01-05 04:15:00,38.2,36.4,30.23,East,79,0.0,0.0,93,0.00,,,0.00,Wunderground v.1.15,2013-01-05 12:15:00,
2013-01-05 04:30:00,37.8,36.0,30.23,ESE,117,1.0,2.0,93,0.00,,,0.00,Wunderground v.1.15,2013-01-05 12:30:00,
2013-01-05 04:35:00,37.7,35.9,30.23,SE,125,1.0,2.0,93,0.00,,,0.00,Wunderground v.1.15,2013-01-05 12:35:00,
2013-01-05 04:44:00,37.4,35.3,30.23,SE,125,0.0,0.0,92,0.00,,,0.00,Wunderground v.1.15,2013-01-05 12:44:00,
2013-01-05 04:50:00,37.2,35.1,30.23,SE,125,0.0,0.0,92,0.00,,,0.00,Wunderground v.1.15,2013-01-05 12:50:00,
2013-01-05 05:00:00,36.9,35.1,30.23,SE,125,0.0,0.0,93,0.00,,,0.00,Wunderground v.1.15,2013-01-05 13:00:00,
2013-01-05 05:14:00,36.7,34.9,30.23,SE,125,0.0,0.0,93,0.00,,,0.00,Wunderground v.1.15,2013-01-05 13:14:00,
2013-01-05 05:20:00,36.8,35.0,30.23,SE,125,0.0,0.0,93,0.00,,,0.00,Wunderground v.1.15,2013-01-05 13:20:00,
2013-01-05 05:29:00,36.5,34.7,30.24,SE,125,0.0,0.0,93,0.00,,,0.00,Wunderground v.1.15,2013-01-05 13:29:00,
2013-01-05 05:35:00,36.0,34.2,30.24,North,355,0.0,0.0,93,0.00,,,0.00,Wunderground v.1.15,2013-01-05 13:35:00,
2013-01-05 05:59:00,36.8,35.5,30.24,North,355,0.0,0.0,95,0.00,,,0.00,Wunderground v.1.15,2013-01-05 13:59:00,
2013-01-05 06:05:00,37.2,35.9,30.25,North,355,0.0,0.0,95,0.00,,,0.00,Wunderground v.1.15,2013-01-05 14:05:00,
2013-01-05 06:20:00,36.9,35.3,30.25,North,355,0.0,0.0,94,0.00,,,0.00,Wunderground v.1.15,2013-01-05 14:20:00,
2013-01-05 06:30:00,36.7,35.1,30.25,North,355,0.0,0.0,94,0.00,,,0.00,Wunderground v.1.15,2013-01-05 14:30:00,
2013-01-05 06:35:00,36.8,35.2,30.25,North,355,0.0,0.0,94,0.00,,,0.00,Wunderground v.1.15,2013-01-05 14:35:00,
2013-01-05 06:45:00,37.2,35.6,30.25,North,355,0.0,0.0,94,0.00,,,0.00,Wunderground v.1.15,2013-01-05 14:45:00,
2013-01-05 06:54:00,37.0,35.4,30.25,North,355,0.0,0.0,94,0.00,,,0.00,Wunderground v.1.15,2013-01-05 14:54:00,
2013-01-05 07:00:00,36.9,35.3,30.25,North,355,0.0,0.0,94,0.00,,,0.00,Wunderground v.1.15,2013-01-05 15:00:00,
2013-01-05 07:10:00,37.0,35.4,30.25,North,355,0.0,0.0,94,0.00,,,0.00,Wunderground v.1.15,2013-01-05 15:10:00,
2013-01-05 07:20:00,37.5,35.9,30.25,ESE,123,0.0,0.0,94,0.00,,,0.00,Wunderground v.1.15,2013-01-05 15:20:00,
2013-01-05 07:30:00,38.1,36.5,30.26,SE,130,0.0,0.0,94,0.00,,,0.00,Wunderground v.1.15,2013-01-05 15:30:00,
2013-01-05 07:50:00,36.8,35.0,30.26,NE,46,0.0,0.0,93,0.00,,,0.00,Wunderground v.1.15,2013-01-05 15:50:00,
2013-01-05 08:05:00,37.0,35.4,30.26,NE,46,0.0,0.0,94,0.00,,,0.00,Wunderground v.1.15,2013-01-05 16:05:00,
2013-01-05 08:10:00,37.1,35.5,30.26,NE,46,0.0,0.0,94,0.00,,,0.00,Wunderground v.1.15,2013-01-05 16:10:00,
2013-01-05 08:20:00,37.8,36.2,30.26,NE,46,0.0,0.0,94,0.00,,,0.00,Wunderground v.1.15,2013-01-05 16:20:00,
2013-01-05 08:30:00,39.0,37.7,30.26,NE,46,0.0,0.0,95,0.00,,,0.00,Wunderground v.1.15,2013-01-05 16:30:00,
2013-01-05 08:40:00,39.8,37.9,30.26,NE,46,0.0,0.0,93,0.00,,,0.00,Wunderground v.1.15,2013-01-05 16:40:00,
2013-01-05 08:49:00,40.8,38.7,30.26,NE,46,0.0,0.0,92,0.00,,,0.00,Wunderground v.1.15,2013-01-05 16:49:00,
2013-01-05 08:54:00,41.1,38.7,30.26,NE,46,0.0,0.0,91,0.00,,,0.00,Wunderground v.1.15,2013-01-05 16:54:00,
2013-01-05 09:00:00,41.0,38.0,30.26,NE,47,0.0,0.0,89,0.00,,,0.00,Wunderground v.1.15,2013-01-05 17:00:00,
2013-01-05 09:14:00,41.6,38.9,30.26,NE,47,0.0,0.0,90,0.00,,,0.00,Wunderground v.1.15,2013-01-05 17:14:00,
2013-01-05 09:25:00,42.8,39.5,30.27,NE,47,0.0,0.0,88,0.00,,,0.00,Wunderground v.1.15,2013-01-05 17:25:00,
2013-01-05 09:30:00,43.1,39.5,30.27,NE,47,0.0,0.0,87,0.00,,,0.00,Wunderground v.1.15,2013-01-05 17:30:00,
2013-01-05 09:35:00,43.2,39.3,30.27,NE,47,0.0,0.0,86,0.00,,,0.00,Wunderground v.1.15,2013-01-05 17:35:00,
2013-01-05 09:45:00,44.3,40.4,30.27,NE,47,0.0,0.0,86,0.00,,,0.00,Wunderground v.1.15,2013-01-05 17:45:00,
2013-01-05 09:50:00,45.3,40.4,30.26,NE,47,0.0,0.0,83,0.00,,,0.00,Wunderground v.1.15,2013-01-05 17:50:00,
2013-01-05 09:55:00,46.0,40.5,30.26,NE,47,0.0,0.0,81,0.00,,,0.00,Wunderground v.1.15,2013-01-05 17:55:00,
2013-01-05 10:00:00,46.7,40.5,30.26,NE,47,0.0,0.0,79,0.00,,,0.00,Wunderground v.1.15,2013-01-05 18:00:00,
2013-01-05 10:15:00,48.1,41.2,30.26,East,82,0.0,0.0,77,0.00,,,0.00,Wunderground v.1.15,2013-01-05 18:15:00,
2013-01-05 10:20:00,48.5,40.9,30.26,East,82,0.0,0.0,75,0.00,,,0.00,Wunderground v.1.15,2013-01-05 18:20:00,
2013-01-05 10:25:00,48.9,41.3,30.26,East,82,0.0,0.0,75,0.00,,,0.00,Wunderground v.1.15,2013-01-05 18:25:00,
2013-01-05 10:30:00,49.1,41.5,30.26,East,82,0.0,0.0,75,0.00,,,0.00,Wunderground v.1.15,2013-01-05 18:30:00,
2013-01-05 10:35:00,49.5,42.2,30.26,East,81,0.0,0.0,76,0.00,,,0.00,Wunderground v.1.15,2013-01-05 18:35:00,
2013-01-05 10:45:00,50.4,42.4,30.25,East,81,0.0,1.0,74,0.00,,,0.00,Wunderground v.1.15,2013-01-05 18:45:00,
2013-01-05 10:55:00,50.5,42.9,30.24,ESE,123,1.0,1.0,75,0.00,,,0.00,Wunderground v.1.15,2013-01-05 18:55:00,
2013-01-05 11:05:00,50.8,43.2,30.22,East,97,3.0,6.0,75,0.00,,,0.00,Wunderground v.1.15,2013-01-05 19:05:00,
2013-01-05 11:10:00,50.0,42.4,30.21,East,98,5.0,5.0,75,0.00,,,0.00,Wunderground v.1.15,2013-01-05 19:10:00,
2013-01-05 11:20:00,49.8,42.9,30.20,ESE,121,2.0,2.0,77,0.00,,,0.00,Wunderground v.1.15,2013-01-05 19:20:00,
2013-01-05 11:30:00,50.2,43.6,30.18,East,81,2.0,2.0,78,0.00,,,0.00,Wunderground v.1.15,2013-01-05 19:30:00,
2013-01-05 11:40:00,51.5,44.5,30.19,NNW,328,1.0,1.0,77,0.00,,,0.00,Wunderground v.1.15,2013-01-05 19:40:00,
2013-01-05 11:45:00,52.2,44.5,30.19,NNE,15,0.0,1.0,75,0.00,,,0.00,Wunderground v.1.15,2013-01-05 19:45:00,
2013-01-05 11:50:00,52.6,44.2,30.19,NE,49,1.0,1.0,73,0.00,,,0.00,Wunderground v.1.15,2013-01-05 19:50:00,
2013-01-05 12:00:00,53.2,44.8,30.19,NNW,336,3.0,8.0,73,0.00,,,0.00,Wunderground v.1.15,2013-01-05 20:00:00,
2013-01-05 12:10:00,53.3,44.1,30.19,NNW,338,3.0,3.0,71,0.00,,,0.00,Wunderground v.1.15,2013-01-05 20:10:00,
2013-01-05 12:20:00,53.4,44.2,30.19,NNW,336,2.0,5.0,71,0.00,,,0.00,Wunderground v.1.15,2013-01-05 20:20:00,
2013-01-05 12:29:00,53.1,44.7,30.18,NE,45,4.0,4.0,73,0.00,,,0.00,Wunderground v.1.15,2013-01-05 20:29:00,
2013-01-05 12:40:00,53.0,44.2,30.18,ENE,59,1.0,2.0,72,0.00,,,0.00,Wunderground v.1.15,2013-01-05 20:40:00,
2013-01-05 12:50:00,52.4,43.6,30.18,NE,40,2.0,3.0,72,0.00,,,0.00,Wunderground v.1.15,2013-01-05 20:50:00,
2013-01-05 13:00:00,52.1,43.3,30.18,East,84,1.0,1.0,72,0.00,,,0.00,Wunderground v.1.15,2013-01-05 21:00:00,
2013-01-05 13:05:00,52.1,43.3,30.18,NE,46,1.0,3.0,72,0.00,,,0.00,Wunderground v.1.15,2013-01-05 21:05:00,
2013-01-05 13:10:00,51.9,43.5,30.18,East,79,1.0,3.0,73,0.00,,,0.00,Wunderground v.1.15,2013-01-05 21:10:00,
2013-01-05 13:20:00,51.6,43.2,30.17,ESE,115,1.0,1.0,73,0.00,,,0.00,Wunderground v.1.15,2013-01-05 21:20:00,
2013-01-05 13:30:00,51.6,43.6,30.16,SE,126,1.0,2.0,74,0.00,,,0.00,Wunderground v.1.15,2013-01-05 21:30:00,
2013-01-05 13:35:00,51.7,43.3,30.16,SE,125,1.0,4.0,73,0.00,,,0.00,Wunderground v.1.15,2013-01-05 21:35:00,
2013-01-05 13:50:00,51.6,43.2,30.16,ENE,71,1.0,1.0,73,0.00,,,0.00,Wunderground v.1.15,2013-01-05 21:50:00,
2013-01-05 14:00:00,51.5,43.5,30.15,ESE,123,2.0,4.0,74,0.00,,,0.00,Wunderground v.1.15,2013-01-05 22:00:00,
2013-01-05 14:10:00,51.4,43.4,30.14,East,79,2.0,2.0,74,0.00,,,0.00,Wunderground v.1.15,2013-01-05 22:10:00,
2013-01-05 14:24:00,51.3,43.3,30.14,East,90,3.0,3.0,74,0.00,,,0.00,Wunderground v.1.15,2013-01-05 22:24:00,
2013-01-05 14:30:00,51.3,43.6,30.13,ESE,107,2.0,2.0,75,0.00,,,0.00,Wunderground v.1.15,2013-01-05 22:30:00,
2013-01-05 14:35:00,51.4,44.1,30.14,South,182,1.0,2.0,76,0.00,,,0.00,Wunderground v.1.15,2013-01-05 22:35:00,
2013-01-05 14:40:00,51.5,43.5,30.13,SE,124,1.0,1.0,74,0.00,,,0.00,Wunderground v.1.15,2013-01-05 22:40:00,
2013-01-05 14:50:00,51.4,43.7,30.13,East,90,1.0,1.0,75,0.00,,,0.00,Wunderground v.1.15,2013-01-05 22:50:00,
2013-01-05 15:05:00,51.6,43.9,30.13,East,88,0.0,1.0,75,0.00,,,0.00,Wunderground v.1.15,2013-01-05 23:05:00,
2013-01-05 15:15:00,51.5,43.8,30.12,East,88,0.0,0.0,75,0.00,,,0.00,Wunderground v.1.15,2013-01-05 23:15:00,
2013-01-05 15:20:00,51.5,44.2,30.12,ESE,107,0.0,0.0,76,0.00,,,0.00,Wunderground v.1.15,2013-01-05 23:20:00,
2013-01-05 15:30:00,51.4,44.1,30.12,NE,51,0.0,0.0,76,0.00,,,0.00,Wunderground v.1.15,2013-01-05 23:30:00,
2013-01-05 15:45:00,51.4,44.1,30.12,NE,51,0.0,1.0,76,0.00,,,0.00,Wunderground v.1.15,2013-01-05 23:45:00,
2013-01-05 15:50:00,51.3,44.0,30.12,NE,51,0.0,0.0,76,0.00,,,0.00,Wunderground v.1.15,2013-01-05 23:50:00,
2013-01-05 15:55:00,51.3,44.0,30.12,NE,51,0.0,0.0,76,0.00,,,0.00,Wunderground v.1.15,2013-01-05 23:55:00,
2013-01-05 16:05:00,51.4,44.4,30.11,NE,51,0.0,0.0,77,0.00,,,0.00,Wunderground v.1.15,2013-01-06 00:05:00,
2013-01-05 16:15:00,51.3,44.3,30.11,ENE,58,0.0,1.0,77,0.00,,,0.00,Wunderground v.1.15,2013-01-06 00:15:00,
2013-01-05 16:25:00,51.0,44.7,30.11,ESE,104,1.0,2.0,79,0.00,,,0.00,Wunderground v.1.15,2013-01-06 00:25:00,
2013-01-05 16:35:00,50.1,44.8,30.10,ESE,113,3.0,6.0,82,0.00,,,0.01,Wunderground v.1.15,2013-01-06 00:35:00,
2013-01-05 16:44:00,49.6,45.0,30.10,East,87,3.0,6.0,84,0.00,,,0.01,Wunderground v.1.15,2013-01-06 00:44:00,
2013-01-05 16:50:00,49.5,45.2,30.10,SE,142,1.0,1.0,85,0.00,,,0.01,Wunderground v.1.15,2013-01-06 00:50:00,
2013-01-05 17:00:00,49.3,45.3,30.10,ESE,120,1.0,1.0,86,0.00,,,0.01,Wunderground v.1.15,2013-01-06 01:00:00,
2013-01-05 17:10:00,49.2,45.5,30.11,ESE,115,1.0,1.0,87,0.00,,,0.02,Wunderground v.1.15,2013-01-06 01:10:00,
2013-01-05 17:15:00,49.0,45.3,30.11,SSE,153,0.0,1.0,87,0.00,,,0.02,Wunderground v.1.15,2013-01-06 01:15:00,
2013-01-05 17:20:00,48.9,45.5,30.11,SSE,153,0.0,0.0,88,0.00,,,0.02,Wunderground v.1.15,2013-01-06 01:20:00,
2013-01-05 17:35:00,48.5,45.7,30.11,SSE,153,0.0,1.0,90,0.04,,,0.03,Wunderground v.1.15,2013-01-06 01:35:00,
2013-01-05 17:45:00,48.3,45.8,30.11,SE,133,1.0,1.0,91,0.04,,,0.04,Wunderground v.1.15,2013-01-06 01:45:00,
2013-01-05 17:55:00,48.1,45.6,30.11,SE,127,0.0,1.0,91,0.06,,,0.05,Wunderground v.1.15,2013-01-06 01:55:00,
2013-01-05 18:00:00,48.1,45.6,30.11,East,99,1.0,1.0,91,0.06,,,0.06,Wunderground v.1.15,2013-01-06 02:00:00,
2013-01-05 18:10:00,47.9,45.7,30.11,East,99,0.0,0.0,92,0.05,,,0.06,Wunderground v.1.15,2013-01-06 02:10:00,
2013-01-05 18:20:00,47.6,45.4,30.10,East,98,0.0,0.0,92,0.00,,,0.06,Wunderground v.1.15,2013-01-06 02:20:00,
2013-01-05 18:25:00,47.4,45.5,30.10,ENE,65,0.0,1.0,93,0.00,,,0.07,Wunderground v.1.15,2013-01-06 02:25:00,
2013-01-05 18:34:00,46.9,44.7,30.10,ESE,122,1.0,1.0,92,0.00,,,0.07,Wunderground v.1.15,2013-01-06 02:34:00,
2013-01-05 18:39:00,46.8,44.9,30.09,ESE,108,1.0,4.0,93,0.00,,,0.07,Wunderground v.1.15,2013-01-06 02:39:00,
2013-01-05 18:44:00,46.6,44.7,30.09,East,96,2.0,4.0,93,0.00,,,0.07,Wunderground v.1.15,2013-01-06 02:44:00,
2013-01-05 18:50:00,46.6,44.7,30.09,ESE,121,3.0,3.0,93,0.00,,,0.07,Wunderground v.1.15,2013-01-06 02:50:00,
2013-01-05 19:05:00,46.5,44.6,30.09,SE,135,1.0,2.0,93,0.00,,,0.07,Wunderground v.1.15,2013-01-06 03:05:00,
2013-01-05 19:15:00,46.4,44.5,30.09,ESE,115,1.0,5.0,93,0.00,,,0.07,Wunderground v.1.15,2013-01-06 03:15:00,
2013-01-05 19:20:00,46.4,44.5,30.09,SSE,150,2.0,2.0,93,0.00,,,0.08,Wunderground v.1.15,2013-01-06 03:20:00,
2013-01-05 19:25:00,46.4,44.5,30.08,ESE,105,3.0,3.0,93,0.12,,,0.09,Wunderground v.1.15,2013-01-06 03:25:00,
2013-01-05 19:35:00,46.4,44.5,30.09,SE,133,1.0,2.0,93,0.07,,,0.10,Wunderground v.1.15,2013-01-06 03:35:00,
2013-01-05 19:45:00,46.3,44.7,30.09,ENE,74,2.0,2.0,94,0.05,,,0.10,Wunderground v.1.15,2013-01-06 03:45:00,
2013-01-05 19:54:00,46.3,44.7,30.09,East,96,2.0,4.0,94,0.00,,,0.11,Wunderground v.1.15,2013-01-06 03:54:00,
2013-01-05 20:00:00,46.2,44.6,30.09,NE,56,3.0,3.0,94,0.00,,,0.11,Wunderground v.1.15,2013-01-06 04:00:00,
2013-01-05 20:20:00,46.1,44.5,30.09,East,84,0.0,0.0,94,0.00,,,0.11,Wunderground v.1.15,2013-01-06 04:20:00,
2013-01-05 20:30:00,45.8,44.2,30.09,East,90,1.0,1.0,94,0.00,,,0.12,Wunderground v.1.15,2013-01-06 04:30:00,
2013-01-05 20:35:00,45.6,44.0,30.09,ENE,67,1.0,2.0,94,0.00,,,0.12,Wunderground v.1.15,2013-01-06 04:35:00,
2013-01-05 20:40:00,45.5,43.9,30.09,ENE,74,1.0,2.0,94,0.07,,,0.13,Wunderground v.1.15,2013-01-06 04:40:00,
2013-01-05 20:49:00,45.2,43.6,30.09,ESE,122,3.0,3.0,94,0.05,,,0.13,Wunderground v.1.15,2013-01-06 04:49:00,
2013-01-05 20:55:00,45.2,43.6,30.10,SE,137,2.0,3.0,94,0.00,,,0.13,Wunderground v.1.15,2013-01-06 04:55:00,
2013-01-05 21:05:00,45.1,43.5,30.09,ESE,104,2.0,4.0,94,0.00,,,0.13,Wunderground v.1.15,2013-01-06 05:05:00,
2013-01-05 21:09:00,45.1,43.5,30.09,SE,124,3.0,3.0,94,0.00,,,0.13,Wunderground v.1.15,2013-01-06 05:09:00,
2013-01-05 21:15:00,45.1,43.5,30.08,East,86,2.0,3.0,94,0.00,,,0.13,Wunderground v.1.15,2013-01-06 05:15:00,
2013-01-05 21:20:00,45.1,43.5,30.08,ESE,123,1.0,1.0,94,0.00,,,0.13,Wunderground v.1.15,2013-01-06 05:20:00,
2013-01-05 21:45:00,45.1,43.8,30.08,ENE,74,1.0,1.0,95,0.00,,,0.13,Wunderground v.1.15,2013-01-06 05:45:00,
2013-01-05 21:50:00,45.1,43.8,30.09,ESE,107,1.0,2.0,95,0.00,,,0.13,Wunderground v.1.15,2013-01-06 05:50:00,
2013-01-05 22:00:00,45.0,43.7,30.09,ESE,118,1.0,4.0,95,0.00,,,0.13,Wunderground v.1.15,2013-01-06 06:00:00,
2013-01-05 22:25:00,44.9,43.6,30.08,ESE,107,1.0,1.0,95,0.05,,,0.15,Wunderground v.1.15,2013-01-06 06:25:00,
2013-01-05 22:40:00,44.8,43.5,30.09,SSE,148,1.0,1.0,95,0.00,,,0.16,Wunderground v.1.15,2013-01-06 06:40:00,
2013-01-05 22:49:00,44.7,43.4,30.10,SSE,151,1.0,2.0,95,0.00,,,0.16,Wunderground v.1.15,2013-01-06 06:49:00,
2013-01-05 22:55:00,44.7,43.4,30.09,East,99,2.0,2.0,95,0.00,,,0.16,Wunderground v.1.15,2013-01-06 06:55:00,
2013-01-05 23:00:00,44.6,43.3,30.09,East,88,2.0,3.0,95,0.00,,,0.16,Wunderground v.1.15,2013-01-06 07:00:00,
2013-01-05 23:10:00,44.6,43.3,30.09,South,171,2.0,2.0,95,0.00,,,0.17,Wunderground v.1.15,2013-01-06 07:10:00,
2013-01-05 23:20:00,44.5,43.2,30.09,SE,142,2.0,6.0,95,0.13,,,0.20,Wunderground v.1.15,2013-01-06 07:20:00,
2013-01-05 23:29:00,44.3,43.0,30.08,ESE,123,3.0,3.0,95,0.08,,,0.21,Wunderground v.1.15,2013-01-06 07:29:00,
2013-01-05 23:35:00,44.3,43.0,30.09,East,91,2.0,3.0,95,0.08,,,0.21,Wunderground v.1.15,2013-01-06 07:35:00,
2013-01-05 23:40:00,44.2,42.9,30.09,ENE,72,2.0,2.0,95,0.05,,,0.21,Wunderground v.1.15,2013-01-06 07:40:00,
2013-01-05 23:50:00,43.9,42.6,30.08,East,98,2.0,8.0,95,0.00,,,0.21,Wunderground v.1.15,2013-01-06 07:50:00,